www.pogodaiklimat.ru

АРХИВ ПОГОДЫ в Краснодаре

Время (UTC), дата Ветер
(напр.,м/с)
 
Видим.   Явления Облачность Т
(С)
Тd
(С)
f
(%)
Тe
(С)
Тes
(С)
Комфортность P
(гПа)
Po
(гПа)
Тmin
(С)
Tmax
(С)
R
(мм)
S
(см)
00 18.04 СВ 2 10 км 10/0
[Ci fib]
+14.7 +6.0 56 +15 +15 тепло 1011.2 1007.6
03 18.04 СВ 3 10 км 10/3 1000 м
[Sc Ci fib]
+13.2 +5.8 61 +12 +12 тепло 1010.5 1006.9 +13.2
06 18.04 В 4
{11}
10 км 9/4 1000 м
[Sc Ac trans]
+16.9 +6.1 49 +16 +18 тепло 1010.3 1006.7
09 18.04 В 3 10 км 9/8 1000 м
[Sc Ac trans]
+21.1 +8.5 44 +22 +24 комфорт 1010.0 1006.5
12 18.04 В 3 10 км 8/0
[Ac trans]
+26.1 +8.5 33 +26 +31 жарко 1008.5 1005.0
15 18.04 В 4 10 км 3/0
[Ac trans Cc]
+24.1 +8.3 36 +25 +25 комфорт 1009.0 1005.5 +26.5
18 18.04 СВ 2 10 км 3/3 1000 м
[Sc]
+20.4 +9.0 48 +22 +22 комфорт 1009.6 1006.1
21 18.04 В 2 10 км 3/3 1000 м
[Sc Ac trans]
+18.3 +9.0 55 +19 +19 тепло 1010.5 1007.0
00 19.04 В 1 10 км 6/0
[Ac trans Ci]
+14.8 +8.9 68 +15 +15 тепло 1011.4 1007.8
03 19.04 В 1 10 км 10/8 600 м
[Cb cap Ac und]
+15.0 +9.1 68 +16 +16 тепло 1012.4 1008.8 +14.5
06 19.04 ЮВ 1 10 км 9/3 1000 м
[Sc Ac trans Ci fib]
+19.7 +10.5 55 +22 +26 комфорт 1013.5 1009.9
09 19.04 В 2 10 км 10/3 1000 м
[Sc Ac trans Ci fib]
+26.2 +9.1 34 +27 +32 жарко 1013.6 1010.2
12 19.04 С 1 10 км 10/6 1000 м
[Cu med, cong Ci fib]
+27.9 +9.7 32 +28 +32 жарко 1013.0 1009.6
15 19.04 СВ 2 10 км 6/3 1000 м
[Cu med, cong Ac trans Ci fib]
+26.5 +8.5 32 +27 +27 жарко 1012.0 1008.6 +28.2
18 19.04 В 1 10 км 10/3 1000 м
[Sc Ac trans Ci fib]
+22.0 +11.3 51 +24 +24 комфорт 1011.9 1008.4
21 19.04 СВ 1 10 км зарница {ливн. осадки} 10/8 1000 м
[Cb cap Ac und]
+19.0 +12.1 64 +21 +21 комфорт 1009.4 1005.9
00 20.04 З 3 10 км в посл. час ливневой дождь {гроза} 9/8 600 м
[Cb cap Ac trans]
+15.6 +12.6 82 +15 +15 тепло 1011.4 1007.8
03 20.04 СВ 1 10 км 9/8 1000 м
[Cb cap Ac trans]
+14.7 +11.9 83 +15 +15 тепло 1011.9 1008.3 +14.7 3
06 20.04 Ю 2 10 км в посл. час ливневой дождь 8/6 600 м
[Cb cap Ac trans Ci fib]
+17.0 +11.0 68 +17 +20 тепло 1013.2 1009.6 +14.5
09 20.04 Ю 6-12
{13}
10 км {ливн. осадки} 10/3 1000 м
[Cb cap Ac trans Ci fib]
+17.9 +8.9 56 +17 +20 тепло 1014.9 1011.3
12 20.04 Ю 5-11
{12}
10 км 8/3 1000 м
[Cb cap Ci fib]
+17.4 +9.5 60 +17 +20 по сезону 1015.7 1012.1
15 20.04 Ю 4
{12}
10 км 6/4 600 м
[Cb cap Ci fib]
+14.8 +9.3 70 +14 +14 по сезону 1016.4 1012.8 +19.1 0.0
18 20.04 Ю 2 10 км 3/0
[Ci fib]
+12.4 +9.2 81 +11 +11 по сезону 1017.1 1013.5
21 20.04 штиль 0 10 км 8/0
[Ci fib]
+10.8 +8.1 83 +10 +10 по сезону 1016.6 1012.9
00 21.04 штиль 0 10 км 10/3 1000 м
[Sc Ci fib]
+9.7 +8.1 90 +9 +9 по сезону 1016.1 1012.4
03 21.04 штиль 0 10 км 10/4 1000 м
[Sc Ac und]
+9.8 +8.3 90 +9 +9 по сезону 1016.6 1013.0 +9.2
06 21.04 СВ 1 10 км 10/8 1000 м
[Sc Ac und]
+14.2 +9.4 73 +15 +15 тепло 1017.9 1014.3
09 21.04 СВ 1 10 км 9/3 1000 м
[Cu med, cong Ac cast Cc]
+19.3 +7.8 47 +21 +29 комфорт 1016.8 1013.3
12 21.04 СВ 2 10 км 9/8 1000 м
[Cu med, cong Ac trans]
+20.2 +8.8 48 +22 +24 комфорт 1016.3 1012.7
15 21.04 В 2 10 км 10/10 600 м
[Cb cap]
+18.1 +8.9 55 +19 +19 тепло 1016.4 1012.9 +20.5
18 21.04 СВ 1 10 км 9/9 1000 м
[Sc]
+15.5 +7.5 59 +16 +16 тепло 1017.0 1013.4
21 21.04 СВ 1 10 км 3/3 1000 м
[Sc Ac trans]
+11.8 +7.0 72 +12 +12 по сезону 1017.6 1013.9
00 22.04 штиль 0 10 км 9/9 1000 м
[Sc]
+11.2 +7.9 80 +11 +11 тепло 1017.6 1014.0
03 22.04 штиль 0 10 км 10/10 1000 м
[Sc]
+12.1 +9.0 81 +12 +12 тепло 1018.2 1014.5 +10.9
06 22.04 В 1 10 км 10/0
[Ac und]
+13.2 +9.1 76 +13 +16 по сезону 1019.2 1015.6
09 22.04 штиль 0 10 км 10/5 1000 м
[Sc Ac und]
+17.3 +9.6 61 +17 +21 тепло 1019.1 1015.5
12 22.04 штиль 0 10 км 10/8 1000 м
[Cb cap Ac und]
+18.3 +9.5 56 +19 +19 тепло 1018.8 1015.3
15 22.04 Ю 1 10 км в посл. час ливневой дождь 10/5 1000 м
[Sc Ac und]
+16.4 +10.6 69 +17 +17 тепло 1018.7 1015.1 +18.4 0.0
18 22.04 З 1 10 км {ливн. осадки} 10/9 1000 м
[Cb cap Ac und]
+15.3 +11.8 80 +16 +16 тепло 1018.7 1015.1
21 22.04 ЮЗ 1 10 км 10/3 1000 м
[Sc Ac und]
+14.0 +11.9 87 +14 +14 тепло 1018.2 1014.6
00 23.04 З 2 10 км 10/8 1000 м
[Cb cap Ac und]
+12.9 +10.1 83 +12 +12 тепло 1017.6 1014.0
03 23.04 З 2 10 км в посл. час ливневой дождь 10/10 300 м
[Cb cap]
+12.6 +10.7 88 +12 +12 по сезону 1018.0 1014.4 +12.6
06 23.04 З 2 10 км {ливн. осадки} 10/5 300 м
[Cb cap Ac und]
+13.3 +10.3 82 +13 +14 по сезону 1018.2 1014.6 +12.4
09 23.04 З 2 10 км слабый ливневой дождь 10/5 1000 м
[Cb cap Ac As]
+15.7 +11.3 75 +16 +18 тепло 1018.4 1014.8
12 23.04 СЗ 2 10 км в посл. час ливневой дождь 10/5 1000 м
[Cb cap Ac und]
+19.3 +9.7 54 +21 +22 комфорт 1017.7 1014.1
15 23.04 З 1 10 км 10/6 1000 м
[Cb cap Ac und]
+18.2 +10.4 60 +20 +20 тепло 1017.6 1014.0 +19.6 0.0
18 23.04 ЮЗ 1 10 км 10/8 1000 м
[Cb cap Ac und]
+16.1 +10.7 70 +17 +17 тепло 1018.8 1015.2
21 23.04 З 1 10 км 10/3 1000 м
[Sc Ci fib]
+13.2 +7.8 70 +13 +13 тепло 1018.9 1015.2
00 24.04 Ю 1 10 км 5/0
[Ci fib]
+10.4 +8.0 85 +10 +10 по сезону 1018.2 1014.5
03 24.04 Ю 1 10 км 10/4 1000 м
[Sc Ac trans Ci fib]
+10.3 +8.1 86 +10 +10 по сезону 1018.0 1014.3 +9.9
06 24.04 З 2 10 км 8/0
[Ac trans Ci fib]
+17.8 +9.3 57 +18 +24 тепло 1017.6 1014.1
09 24.04 СЗ 2 10 км 8/3 1000 м
[Cu med, cong Ac trans Ci fib]
+22.5 +9.0 42 +24 +31 комфорт 1016.8 1013.3
12 24.04 СЗ 1 10 км в посл. час ливневой дождь 10/8 1000 м
[Cb cap Ac trans Ci fib]
+22.2 +7.2 38 +23 +24 комфорт 1016.3 1012.8
15 24.04 СВ 2 10 км 10/5 1000 м
[Cb cap Ac trans Ci fib]
+18.7 +10.4 58 +20 +20 тепло 1016.8 1013.2 +23.6 0.3
18 24.04 СВ 1 10 км 10/0
[Ac trans Ci fib]
+15.7 +10.5 71 +16 +16 тепло 1018.9 1015.3
21 24.04 СВ 4 10 км ясно +13.0 +1.5 45 +12 +12 по сезону 1020.3 1016.7

 

Обсудить погоду в Краснодаре на МЕТЕОФОРУМЕ

 

Местоположение метеостанции Краснодар (Краснодарский край, Россия): широта 45.03 долгота 39.15 высота над уровнем моря 34 м.

В архиве по умолчанию представлена погода в Краснодаре за последнюю неделю. Архивные данные за месяц целиком и за предыдущие месяцы, начиная с января 2011 года, Вы можете получить, выбрав интересующий диапазон дат из раскрывающегося списка и нажав кнопку "Ввод!".

Внимание! Время в таблицах - всемирное. Для получения местного времени необходимо прибавить поправку, которая в Краснодаре равна 4 ч.

Ветер - указаны скорость ветра в м/с - средняя за 10 мин, порывы в срок и между сроками (в фигурных скобках) и направление, откуда дует ветер: С - северный, СВ - северо-восточный, В - восточный, ЮВ - юго-восточный, Ю - южный, ЮЗ - юго-западный, З - западный, СЗ - северо-западный.
Видимость - горизонтальная дальность видимости в метрах или километрах. При видимости от 1 до 10 км при отсутствии осадков обычно наблюдается дымка, при ухудшении видимости до 1 км и менее - туман. В сухую погоду видимость может ухудшаться дымом, пылью или мглою.
Явления - указаны атсосферные явления, наблюдавшиеся в срок или в последний час перед сроком; фигурными скобками обозначены явления, наблюдавшиеся между сроками (за 1-3 часа до срока); квадратными скобками обозначены град или гололедные отложения с указанием их диаметра в мм.
Облачность - указаны через наклонную черту общая и нижняя облачность в баллах и высота нижней границы облаков в метрах; квадратными скобками обозначены формы облаков: Ci - перистые, Cs - перисто-слоистые, Cc - перисто-кучевые, Ac - высококучевые, As - высокослоистые, Sc - слоисто-кучевые, Ns - слоисто-дождевые, Cu - кучевые, Cb - кучево-дождевые. Подробнее классификацию облаков см. в Атласе облаков (PDF).
T - Температура воздуха - температура, измеренная на высоте 2 м над землей.
Td - Температура точки росы - температура, при понижении до которой содержащийся в воздухе водяной пар достигнет насыщения.
f - Относительная влажность воздуха - влажноcть воздуха, измеренная на высоте 2 м над землей.
Te - Эффективная температура - температура, которую ощущает одетый по сезону человек в тени. Характеристика душности погоды. При расчете учитывается влияние влажности воздуха и скорости ветра на теплоощущения человека.
Tes - Эффективная температура на солнце - температура, которую ощущает человек, с поправкой на солнечный нагрев. Характеристика знойности погоды. Зависит от высоты солнца над горизонтом, облачности и скорости ветра. Ночью, в пасмурную погоду, а также при ветре 12 м/с и более поправка равна нулю.
P - Атмосферное давление - приведенное к уровню моря атмосферное давление.
Po - Атмосферное давление - измеренное на уровне метеостанции атмосферное давление.
Tmin - Минимальная температура - минимум температуры воздуха на высоте 2 м над землей.
Tmax - Максимальная температура - максимум температуры воздуха на высоте 2 м над землей.
R - Количество осадков - Количество выпавших осадков, мм.
S - Снежный покров - Высота снежного покрова, см.